This is the latest recevied weather packets stored in our database for station/object KB0BS-13. If no packets are shown the sender has not sent any weather packets the latest 10 day(s).
| Time | Temp. | Humidity | Pressure | Rain* | Wind** | Luminosity | Snow |
|---|---|---|---|---|---|---|---|
| 1777916433 | 20° C | 36% | 993 hPa | 0 mm | - | 167 W/m² | - |
| 1777916131 | 20° C | 38% | 992.8 hPa | 0 mm | - | 215 W/m² | - |
| 1777915828 | 20° C | 37% | 993 hPa | 0 mm | - | 279 W/m² | - |
| 1777915524 | 20° C | 38% | 993 hPa | 0 mm | - | 337 W/m² | - |
| 1777915221 | 20° C | 38% | 993 hPa | 0 mm | - | 326 W/m² | - |
| 1777914917 | 20.56° C | 39% | 993.1 hPa | 0 mm | - | 640 W/m² | - |
| 1777914615 | 20° C | 41% | 993.1 hPa | 0 mm | - | 574 W/m² | - |
| 1777914311 | 19.44° C | 41% | 993 hPa | 0 mm | - | 864 W/m² | - |
| 1777914009 | 19.44° C | 41% | 993.3 hPa | 0 mm | - | 526 W/m² | - |
| 1777913704 | 19.44° C | 41% | 993.5 hPa | 0 mm | - | 866 W/m² | - |
| 1777913401 | 18.33° C | 44% | 993.8 hPa | 0 mm | - | 673 W/m² | - |
| 1777913098 | 18.33° C | 46% | 993.8 hPa | 0 mm | - | 635 W/m² | - |
| 1777912794 | 17.78° C | 49% | 994.2 hPa | 0 mm | - | 488 W/m² | - |
| 1777912489 | 17.78° C | 48% | 994.3 hPa | 0 mm | - | 636 W/m² | - |
| 1777912187 | 17.78° C | 48% | 994.2 hPa | 0 mm | - | 676 W/m² | - |
| 1777911883 | 17.78° C | 48% | 994.2 hPa | 0 mm | - | 574 W/m² | - |
| 1777911579 | 17.22° C | 49% | 994.5 hPa | 0 mm | - | 674 W/m² | - |
| 1777911275 | 17.22° C | 49% | 994.8 hPa | 0 mm | - | 611 W/m² | - |
| 1777910972 | 17.22° C | 52% | 994.8 hPa | 0 mm | - | 631 W/m² | - |
| 1777910671 | 16.67° C | 55% | 994.9 hPa | 0 mm | - | 663 W/m² | - |
| 1777910367 | 16.11° C | 57% | 994.9 hPa | 0 mm | - | 614 W/m² | - |
| 1777910064 | 16.11° C | 57% | 995.1 hPa | 0 mm | - | 586 W/m² | - |
| 1777909761 | 16.11° C | 58% | 995.2 hPa | 0 mm | - | 595 W/m² | - |
| 1777909457 | 15.56° C | 58% | 995.3 hPa | 0 mm | - | 574 W/m² | - |
| 1777909156 | 15° C | 62% | 995.2 hPa | 0 mm | - | 539 W/m² | - |
* Rain latest hour (hover to see other rain measurements)
** Current wind speed in m/s (hover to see current wind gust speed)